Regional Weather Roundup
Issued by NWS State College, PA

Home | Current Version | Previous Version | Text Only | Print | Product List | Glossary On
Versions: 1 2 3 4 5 6 7 8 9 10 11 12 13 14 15 16 17 18 19 20 21 22 23 24 25 26 27 28 29 30 31 32 33 34 35 36 37 38 39 40 41 42 43 44 45 46 47 48 49 50
000
ASUS41 KCTP 160810
RWRCTP

REGIONAL WEATHER ROUNDUP
NATIONAL WEATHER SERVICE STATE COLLEGE PA
400 AM EDT WED AUG 16 2017

Note: "fair" indicates few or no clouds below 12,000 feet with no
significant weather and/or obstructions to visibility.

* = STATION THAT DOES NOT REPORT PRECIPITATION /E.G. RAIN...SNOW...ETC/
    THUNDER OR FOG.

PAZ002>004-007>009-013>016-020>023-029>032-160900-
WESTERN PENNSYLVANIA

CITY           SKY/WX    TMP DP  RH WIND       PRES   REMARKS
ERIE           PTCLDY    61  58  90 S3        30.01R
MEADVILLE      CLEAR     62  61  96 CALM      30.03S
FRANKLIN*      CLEAR     61  57  88 CALM      30.04S
NEW CASTLE     FAIR      61  60  97 CALM      30.03R FOG
BEAVER COUNTY  NOT AVBL
BUTLER*        PTCLDY    64  63  94 CALM      30.03R
PITTSBURGH INT MOCLDY    68  66  93 CALM      30.02R
PITTSBURGH     PTCLDY    69  65  86 NW3       30.01R
INDIANA*       CLEAR     64  64 100 CALM      30.05R
LATROBE        CLEAR     64  64 100 CALM      30.02S FOG
WASHINGTON CO* MOCLDY    61  61 100 CALM      30.02R
$$

PAZ004>006-010>012-017>019-024>028-033>037-041-042-045-046-049>053-160900-
CENTRAL PENNSYLVANIA

CITY           SKY/WX    TMP DP  RH WIND       PRES   REMARKS
BRADFORD       MOCLDY    58  58 100 CALM      30.04S FOG
DUBOIS         CLEAR     61  58  90 CALM      30.03R FOG
CLEARFIELD     CLEAR     63  62  97 CALM      30.02R FOG
JOHNSTOWN      MOCLDY    66  63  90 NW5       30.04S
ALTOONA        MOCLDY    66  66 100 NW5       30.01R FOG
STATE COLLEGE  PTCLDY    65  64  96 CALM      30.00R
WILLIAMSPORT   MOCLDY    66  65  96 CALM      29.96R
SELINSGROVE    FOG       64  64 100 N3        29.97R VSB 1
FT INDIANTOWN  CLOUDY    64  64 100 CALM      29.95S FOG
CAPITAL CITY   FOG       69  67  93 CALM      29.95R VSB 1/4
HARRISBURG     FOG       69  69 100 CALM      29.95R VSB 1/8
YORK           FOG       64  64 100 CALM      29.96R VSB 1/4
$$

PAZ038>040-043-044-047-048-054-055-060>062-067>071-160900-
EASTERN PENNSYLVANIA

CITY           SKY/WX    TMP DP  RH WIND       PRES   REMARKS
SCRANTON       FOG       64  64 100 E3        29.97S VSB 1/4
MOUNT POCONO   CLEAR     59  59 100 CALM      29.99S
ALLENTOWN      FOG       67  65  93 CALM      29.94R VSB 1/4
QUAKERTOWN*    CLOUDY    63  63 100 CALM      29.95S VSB 1/4
READING        FOG       67  67 100 CALM      29.94R VSB 1/2
LANCASTER      FOG       68  68 100 CALM      29.95R VSB 1/4
COATESVILLE    FOG       63  63 100 W3        29.97R VSB<1/4
POTTSTOWN      FOG       67  67 100 CALM      29.96R VSB 1/4
BLUE BELL      CLOUDY    68  68 100 CALM      29.95S VSB 1/4
DOYLESTOWN     FOG       68  68 100 SW3       29.93S VSB 1/2
WILLOW GROVE   NOT AVBL
NORTH PHILA    FOG       72  70  93 W3        29.94S VSB 3/4
PHILADELPHIA   PTCLDY    72  70  93 VRB3      29.93S
$$




USA.gov is the U.S. government's official web portal to all federal, state and local government web resources and services.